Temp
48 48 47 47 47 48 48 47 46 48 49 49 49 49 50 51 51 52 50 52 42 39 44 45 45 40 37 40 35 37 40 41 40 37 40 37 36 37 38 41 40 37 34 34 35 33 33 61 61 51 55 58 62 62
47 47 47 47 47 47 47 47 47 46 49 48 48 49 50 50 51 51 45 52 51 39 35 43 46 45 42 40 34 41 42 39 40 38 40 39 37 42 41 34 52 39 46 41 44 42 56 62 59 61 62 60 60 62
47 47 47 47 47 47 47 47 47 46 47 47 48 49 49 50 51 50 46 48 44 36 37 39 37 47 44 43 44 37 43 45 42 46 42 41 39 45 38 41 46 52 56 43 46 53 57 60 64 64 63 62 63 63
47 47 47 47 47 47 47 47 46 46 48 48 49 50 50 50 51 50 44 48 47 38 34 35 43 38 44 44 43 44 52 53 49 45 39 39 39 46 44 48 43 47 51 47 45 53 58 59 60 61 61 63 62 63
47 46 46 46 46 46 46 47 46 46 46 49 50 50 51 50 50 46 45 44 45 42 34 35 38 41 43 43 45 50 51 49 45 36 34 34 40 42 41 43 42 49 44 43 42 54 54 53 58 61 58 59 60 59
46 46 46 46 46 46 46 46 47 46 44 44 46 50 49 49 46 42 33 41 44 46 37 32 38 36 37 37 41 41 42 44 42 38 38 42 46 43 37 35 51 56 57 57 53 59 58 58 59 60 58 59 60 60
46 46 46 46 46 46 46 46 46 46 46 44 44 44 43 44 43 37 37 40 44 46 35 31 32 35 37 34 35 35 39 38 38 37 39 43 44 46 42 38 52 55 57 57 58 58 53 57 53 58 60 60 58 60
45 46 46 46 46 46 46 46 47 47 46 46 44 44 44 44 42 37 41 42 43 39 38 31 31 34 38 33 32 38 33 35 36 37 43 42 45 44 37 49 53 54 54 54 55 57 55 57 57 57 59 58 55 55
45 46 46 46 46 46 46 46 46 47 47 47 45 45 46 43 36 37 43 43 43 40 33 34 31 28 39 37 37 36 39 31 40 35 37 42 37 34 43 50 50 51 50 50 53 54 55 53 54 55 55 55 53 52
46 45 45 45 45 45 46 46 46 47 48 47 46 42 39 44 46 44 40 37 38 38 39 33 39 31 37 36 36 37 41 35 31 37 42 37 37 48 52 54 53 52 53 53 47 46 49 49 50 52 53 54 54 53
45 45 45 45 45 45 45 46 46 48 52 50 47 42 52 48 45 41 37 37 39 33 38 35 38 34 40 34 34 42 35 38 30 33 35 34 34 44 52 51 51 51 51 52 53 52 51 50 50 51 51 52 53 53
45 46 45 45 45 45 46 46 46 52 49 46 45 51 54 48 43 36 35 39 38 32 37 34 35 36 38 43 37 39 35 37 28 40 35 31 39 47 48 45 45 46 47 47 48 46 44 44 45 46 48 51 50 46
45 45 45 45 44 45 45 45 46 46 48 52 48 44 42 40 31 30 26 33 32 37 38 38 34 38 41 43 37 37 31 29 40 32 32 39 45 46 44 43 42 44 44 43 43 42 42 41 42 40 43 38 41 37
45 44 45 46 44 44 45 45 46 48 52 44 40 30 33 30 30 30 30 32 38 40 40 40 37 37 40 34 36 30 34 36 29 27 31 38 41 42 43 43 41 40 40 40 39 38 36 35 33 32 31 32 33 33
45 45 45 46 44 44 45 45 46 53 50 39 39 28 30 31 32 32 36 37 40 44 41 39 39 40 36 31 35 32 27 26 30 32 37 41 41 41 38 40 37 32 32 33 34 33 33 33 33 32 32 32 33 34
44 45 47 44 44 44 44 49 54 53 47 40 37 33 36 33 31 33 34 37 43 41 41 41 37 33 32 34 31 29 29 28 34 37 41 41 38 37 36 34 34 33 33 34 34 33 33 33 33 32 32 33 33 34
44 46 43 43 43 44 48 50 51 44 41 39 30 33 34 35 33 34 39 41 46 41 34 37 31 31 39 33 32 37 33 35 36 38 40 39 37 34 33 33 32 33 34 35 35 35 33 33 33 33 31 32 33 34
45 47 44 43 44 48 53 50 45 43 36 38 34 32 38 37 33 36 40 43 42 39 39 35 40 33 30 29 32 35 35 36 38 39 37 36 35 35 35 34 34 36 35 34 36 34 34 34 35 35 34 34 34 34
43 44 43 43 43 41 42 43 45 37 37 39 40 41 39 37 42 43 43 44 46 46 40 39 35 34 35 38 35 35 35 36 37 35 36 37 37 35 35 36 35 36 35 35 36 36 37 39 39 38 37 37 35 35
43 43 43 43 43 44 38 40 47 40 36 39 41 39 41 39 40 40 39 41 43 41 36 35 36 39 39 40 41 41 40 38 38 34 33 35 36 37 36 37 36 37 37 37 37 36 36 37 37 37 37 38 35 33
45 44 43 45 47 44 42 40 40 40 40 37 41 40 39 40 36 35 35 43 36 35 36 41 41 41 44 44 45 43 41 41 38 37 35 33 37 38 37 38 38 38 37 36 35 36 36 36 38 39 35 34 34 35
42 42 41 42 39 38 38 45 39 39 37 39 38 39 37 33 33 35 41 36 36 39 42 42 43 43 41 42 44 45 43 43 41 40 37 37 36 35 36 37 37 35 36 36 38 36 37 39 39 38 34 33 35 35
42 41 39 36 30 32 32 44 35 37 31 33 37 34 35 35 38 43 35 38 39 44 45 45 46 47 44 45 45 44 44 43 40 40 39 40 39 38 39 39 39 37 37 38 40 39 38 37 35 34 34 34 33 33
37 35 30 30 30 27 34 31 37 35 35 32 32 30 34 35 37 34 32 38 41 44 43 42 44 43 43 43 41 41 40 43 42 39 41 41 39 39 41 40 40 40 40 40 39 38 37 35 35 34 33 32 32 32
26 26 27 26 31 27 26 28 29 31 27 30 30 31 33 36 30 29 31 37 37 36 37 38 40 41 39 40 42 42 43 41 40 40 41 41 40 40 40 40 40 41 41 36 34 33 33 33 34 33 32 32 32 32
21 27 24 27 28 26 28 24 26 27 30 28 29 35 35 31 27 27 34 32 32 31 32 31 32 35 38 42 40 39 40 44 43 39 41 43 42 38 36 35 35 36 41 37 34 32 32 32 32 32 32 32 32 32
21 24 29 34 32 31 27 30 32 29 25 25 30 30 29 23 25 29 30 29 29 30 32 33 32 31 32 33 37 39 41 42 41 42 43 43 43 42 39 35 34 38 39 37 34 33 32 32 33 32 32 32 32 32
26 29 20 25 26 30 23 25 24 24 28 31 30 24 25 26 24 28 29 32 34 35 34 34 34 33 33 33 32 33 33 34 36 37 37 36 36 37 37 37 38 35 37 35 34 33 33 32 31 31 31 31 32 33
23 26 26 16 19 23 23 23 24 31 31 29 25 25 28 29 31 31 32 34 34 33 31 31 32 32 32 32 32 33 33 33 32 31 31 31 30 31 34 35 36 36 34 33 32 33 32 31 31 31 32 32 32 32
22 27 22 17 15 16 23 29 27 29 31 30 30 29 29 31 34 37 35 34 32 31 31 31 32 31 30 29 30 31 32 33 33 32 32 32 33 34 33 33 33 33 33 32 32 32 30 31 30 30 31 31 31 31
24 23 21 21 19 24 26 27 27 27 26 25 26 23 23 27 31 34 34 33 33 31 30 29 29 31 30 30 30 29 30 32 32 33 33 34 33 33 33 33 32 32 32 32 32 32 31 30 31 31 30 30 32 31
21 20 18 15 19 25 25 23 23 22 23 23 23 26 26 25 22 29 33 32 30 28 29 28 27 27 30 29 31 32 31 33 32 33 32 33 33 32 33 32 32 32 32 31 31 31 31 32 31 31 31 30 30 29
18 18 18 17 17 18 22 20 19 19 21 21 22 24 25 23 20 28 29 29 28 27 26 27 28 28 28 27 27 30 31 29 29 29 31 32 32 32 32 32 32 32 31 31 31 30 31 30 30 30 30 29 28 28
MSLP
1000.36 999.70 998.85 997.96 997.02 996.06 994.92 993.81 992.72 991.54 991.64 992.30 993.10 993.98 994.73 995.53 996.37 997.37 998.03 998.79 999.58 999.70 999.33 999.51 999.71 1000.04 1000.03 999.82 999.19 998.25 998.17 998.34 998.72 999.26 999.79 1000.56 1001.00 1001.00 1001.01 1000.55 1000.43 1001.04 1002.48 1002.72 1003.04 1002.38 1001.24 999.20 999.16 999.07 999.34 999.79 1000.11 1000.48
1000.64 999.98 999.33 998.45 997.59 996.59 995.50 994.48 993.44 992.78 992.46 992.84 993.48 994.16 994.95 995.80 996.56 997.69 998.10 998.61 999.31 1000.45 1000.92 1000.88 1000.37 1000.39 1000.38 1000.75 1000.93 998.69 997.47 998.32 998.34 998.12 998.68 999.11 999.74 999.33 999.73 999.93 999.54 999.81 999.43 1000.08 1000.91 1000.15 999.41 999.02 998.63 999.11 999.59 1000.15 1000.71 1001.07
1000.93 1000.30 999.63 998.94 998.17 997.34 996.24 995.18 994.36 993.63 992.76 993.10 993.70 994.41 995.24 996.03 996.70 997.48 998.15 998.80 999.65 1000.34 1000.61 1000.64 1000.01 999.95 1000.65 1000.79 1000.84 999.89 997.92 997.87 998.12 998.18 998.17 998.66 998.58 998.60 998.39 998.24 998.43 998.84 999.06 999.20 999.85 999.26 998.99 999.06 999.47 999.54 1000.17 1000.56 1001.09 1001.66
1001.31 1000.71 999.98 999.30 998.57 997.81 996.91 995.90 995.05 994.04 992.61 993.21 993.84 994.49 995.20 995.77 996.43 997.51 998.42 998.54 999.06 1000.04 1000.14 1000.28 1000.18 1000.36 1000.39 999.86 998.76 997.94 996.00 996.64 997.59 998.19 998.69 998.76 998.55 998.23 997.94 997.47 997.75 998.16 998.36 998.91 999.20 998.90 998.48 999.13 999.43 1000.00 1000.52 1000.74 1001.36 1002.15
1001.58 1001.04 1000.47 999.68 998.96 998.16 997.41 996.58 995.71 994.93 993.86 993.55 994.06 994.58 995.16 995.87 996.70 998.17 998.57 999.03 999.04 999.39 999.35 999.52 999.91 999.99 998.82 997.69 997.20 996.06 995.78 996.42 997.44 998.66 999.02 998.97 998.69 998.07 998.23 997.99 997.54 997.37 998.06 998.25 998.52 998.71 998.62 999.28 999.99 1000.50 1001.43 1001.88 1002.40 1002.87
1001.90 1001.38 1000.78 1000.21 999.36 998.61 997.76 997.12 996.52 996.12 995.98 995.57 995.33 995.02 995.53 996.22 997.24 998.11 999.65 999.57 999.23 998.76 999.38 999.48 999.84 1000.13 999.84 999.22 996.73 996.22 996.45 996.84 997.53 998.68 999.41 999.18 999.32 999.30 999.18 998.78 997.73 997.19 996.94 997.76 998.15 998.79 999.07 999.86 1000.22 1001.23 1002.12 1002.40 1002.93 1003.56
1002.19 1001.69 1001.13 1000.54 999.87 999.05 998.40 997.52 997.12 996.89 996.90 996.90 996.73 996.66 996.85 996.96 997.72 998.38 998.61 998.43 999.21 998.94 999.27 999.64 999.89 999.88 999.68 999.25 998.62 998.33 998.23 998.71 998.96 999.10 999.16 998.90 999.16 999.02 998.38 997.84 996.98 997.08 997.65 998.28 998.88 999.21 999.98 1000.34 1000.88 1001.66 1002.22 1003.08 1003.70 1004.17
1002.34 1001.94 1001.49 1000.94 1000.33 999.62 998.80 998.22 997.43 997.32 997.37 997.43 997.51 997.70 997.77 997.82 998.55 998.79 998.99 998.91 998.84 998.86 999.03 999.06 999.45 999.61 999.46 998.94 998.92 999.03 999.93 999.99 999.43 999.66 999.29 998.75 999.06 998.90 997.97 997.19 997.37 997.94 998.66 999.06 999.60 1000.07 1000.68 1001.07 1001.84 1002.79 1003.20 1003.35 1004.04 1004.70
1002.48 1002.05 1001.69 1001.25 1000.66 1000.03 999.33 998.44 997.91 997.47 997.67 997.73 997.91 997.92 997.79 998.07 998.67 999.24 999.42 999.19 999.00 998.90 998.28 998.09 997.93 999.12 999.48 999.36 999.39 999.48 999.22 999.39 999.78 999.68 999.11 998.42 998.82 998.11 997.26 997.02 997.95 998.79 999.42 1000.09 1000.70 1001.06 1001.20 1001.76 1002.70 1003.18 1003.52 1003.81 1004.34 1005.04
1002.71 1002.27 1001.91 1001.46 1000.88 1000.17 999.49 998.69 997.63 997.13 997.26 997.83 998.15 997.83 997.27 997.74 998.65 999.10 999.37 998.67 998.40 998.35 998.02 997.81 998.06 998.55 998.58 998.51 998.79 998.99 998.69 999.06 999.57 999.64 999.32 998.92 998.70 998.05 997.34 997.69 998.44 999.58 1000.24 1000.79 1001.40 1001.81 1002.28 1002.91 1003.35 1003.54 1003.74 1004.20 1004.67 1005.31
1003.26 1002.78 1002.24 1001.66 1001.12 1000.46 999.68 998.98 997.95 996.66 996.24 997.02 996.95 996.79 996.60 997.54 998.01 997.61 997.32 997.28 997.36 997.82 997.86 998.37 998.20 998.31 998.83 998.35 998.12 998.18 998.81 998.70 998.76 999.49 999.21 998.98 998.74 998.43 998.15 998.75 999.79 1000.71 1001.33 1001.80 1002.32 1002.93 1003.28 1003.53 1003.73 1004.18 1004.53 1004.87 1005.14 1005.69
1003.78 1003.16 1002.60 1002.04 1001.36 1000.67 1000.03 999.31 998.73 997.45 997.60 997.82 997.84 996.79 995.99 995.92 996.34 996.64 996.64 996.42 996.26 997.18 997.90 998.21 998.69 998.84 998.95 998.78 998.64 998.78 998.58 998.74 998.93 999.12 998.79 998.26 998.04 998.59 999.36 1000.42 1001.45 1002.30 1002.80 1003.29 1003.79 1004.32 1004.90 1004.92 1005.09 1005.42 1005.52 1005.60 1005.90 1006.76
1003.92 1003.49 1002.88 1002.23 1001.61 1000.85 1000.09 999.45 998.79 998.47 997.58 997.11 997.31 996.75 996.64 996.89 997.06 996.99 997.13 996.65 996.65 996.76 997.32 997.85 998.37 998.81 998.95 998.57 998.80 998.57 998.78 999.00 998.90 998.99 998.32 997.69 998.26 999.13 1000.28 1001.48 1002.54 1003.27 1003.82 1004.35 1004.77 1005.23 1005.60 1005.94 1006.28 1006.65 1006.74 1007.27 1007.51 1008.12
1003.76 1003.33 1002.92 1002.34 1001.79 1000.97 1000.23 999.46 998.71 998.01 997.30 996.92 997.02 997.68 997.72 998.00 998.69 998.94 998.63 998.02 997.73 997.26 997.34 997.68 997.98 998.22 998.52 998.96 999.10 999.10 999.47 999.14 998.81 998.51 997.93 998.44 999.25 1000.15 1001.19 1002.25 1003.26 1003.91 1004.55 1005.08 1005.61 1006.03 1006.55 1007.09 1007.58 1008.02 1008.22 1008.42 1008.75 1009.11
1003.51 1003.15 1002.76 1002.24 1001.76 1001.00 1000.23 999.48 998.75 997.89 997.36 997.58 997.87 998.32 998.96 999.97 1000.06 999.92 999.51 998.76 998.32 997.88 997.99 998.09 998.12 998.14 998.62 999.15 998.95 999.56 999.75 999.21 998.60 997.86 998.15 998.67 999.97 1001.05 1002.10 1003.03 1003.90 1004.90 1005.42 1006.00 1006.57 1007.03 1007.46 1007.90 1008.32 1008.72 1009.02 1009.13 1009.27 1009.56
1003.42 1002.76 1002.66 1002.35 1001.74 1000.85 1000.02 999.16 998.00 997.90 998.10 998.57 999.02 999.33 999.61 999.74 1000.04 1000.00 999.53 998.87 998.58 998.51 998.51 998.30 998.17 998.50 998.64 998.78 998.93 999.03 998.95 998.50 998.27 998.54 998.94 999.84 1001.07 1001.97 1003.09 1004.12 1004.93 1005.76 1006.33 1006.81 1007.23 1007.62 1008.03 1008.37 1008.66 1008.94 1009.17 1009.32 1009.49 1009.79
1003.42 1002.94 1003.02 1002.34 1001.62 1000.47 999.53 999.02 998.16 998.12 998.36 998.69 1000.02 1000.38 1000.18 1000.05 1000.10 1000.03 999.44 998.92 998.70 998.61 998.52 998.21 998.12 998.06 998.15 998.21 998.13 998.08 998.38 998.84 999.46 999.88 1000.40 1001.22 1002.00 1002.92 1004.12 1005.04 1005.66 1006.19 1006.70 1007.04 1007.40 1007.77 1008.17 1008.51 1008.78 1009.05 1009.27 1009.58 1009.77 1010.10
1003.28 1003.09 1002.82 1002.52 1001.74 1000.01 999.09 998.97 998.68 998.36 998.71 999.21 999.68 1000.28 1000.04 1000.22 1000.39 1000.03 999.63 999.30 999.00 998.79 998.63 998.40 998.21 998.05 998.03 997.96 997.80 998.72 999.55 999.99 1000.23 1000.79 1001.49 1002.07 1002.90 1003.81 1004.67 1005.36 1005.97 1006.17 1006.48 1006.92 1007.27 1007.86 1008.19 1008.31 1008.38 1008.64 1009.24 1009.65 1010.00 1010.38
1004.14 1003.67 1003.26 1002.72 1002.33 1001.53 999.98 999.56 999.40 998.92 999.28 999.44 999.72 999.80 1000.04 1000.31 1000.00 999.96 999.76 999.68 999.39 999.30 999.32 998.77 998.31 997.88 997.82 998.02 998.61 999.22 999.89 1000.31 1000.78 1001.54 1002.12 1002.69 1003.37 1004.22 1004.87 1005.45 1005.76 1006.02 1006.46 1006.80 1007.15 1007.48 1007.72 1007.90 1007.92 1008.36 1008.91 1009.31 1009.74 1010.17
1003.64 1003.47 1003.11 1002.44 1002.26 1000.83 1000.25 999.91 999.85 999.30 999.09 999.42 999.60 999.62 999.62 999.94 1000.08 1000.10 1000.10 999.96 999.56 999.28 999.03 998.52 998.04 998.05 998.23 998.37 998.66 999.12 999.75 1000.48 1001.08 1001.77 1002.57 1003.21 1003.70 1004.19 1004.68 1005.15 1005.51 1005.86 1006.27 1006.62 1006.83 1007.18 1007.44 1007.62 1007.74 1008.23 1008.63 1008.94 1009.42 1010.01
1003.19 1003.28 1002.87 1002.31 1001.12 1001.00 1000.44 999.97 999.59 999.63 999.52 999.47 999.32 999.48 999.44 999.83 1000.03 1000.07 1000.00 999.64 999.80 999.38 998.45 998.06 997.94 998.30 998.52 998.64 998.80 999.14 999.81 1000.42 1000.97 1001.57 1002.25 1003.04 1003.62 1004.00 1004.48 1004.89 1005.29 1005.62 1005.91 1006.36 1006.74 1006.85 1007.08 1007.42 1007.73 1008.20 1008.57 1009.10 1009.62 1009.88
1003.62 1003.59 1003.12 1002.70 1001.74 1001.47 1000.84 999.97 999.98 1000.42 1000.15 999.40 999.53 999.44 999.11 999.45 999.53 999.48 999.45 999.46 999.11 998.57 998.38 998.38 998.39 998.43 998.71 998.90 999.08 999.44 1000.03 1000.34 1000.96 1001.41 1001.97 1002.69 1003.31 1003.82 1004.20 1004.56 1004.98 1005.37 1005.67 1005.93 1006.10 1006.52 1006.84 1007.10 1007.50 1008.12 1008.83 1009.41 1009.77 1009.85
1003.56 1003.60 1003.15 1002.91 1002.44 1001.70 1001.05 1000.30 1000.10 999.84 999.86 999.58 999.17 998.95 998.69 998.75 998.65 998.73 998.74 998.49 998.37 998.24 998.34 998.37 998.26 998.34 998.64 998.92 999.25 999.76 1000.11 1000.44 1000.87 1001.33 1001.86 1002.34 1002.97 1003.42 1003.76 1004.14 1004.49 1004.86 1005.19 1005.51 1005.72 1006.28 1006.66 1007.02 1007.75 1008.44 1008.92 1009.30 1009.60 1009.88
1003.84 1003.48 1003.05 1002.49 1002.21 1001.60 1001.25 1000.64 1000.06 999.77 999.49 999.55 999.08 998.59 998.19 998.42 999.11 998.98 998.42 997.92 997.93 998.22 998.56 998.74 998.74 998.74 998.91 999.16 999.44 999.90 1000.26 1000.49 1000.73 1001.32 1001.58 1001.96 1002.46 1002.89 1003.30 1003.70 1004.08 1004.47 1004.79 1005.21 1005.81 1006.35 1006.82 1007.37 1007.88 1008.41 1008.75 1008.99 1009.43 1009.68
1003.90 1003.39 1003.24 1002.19 1001.96 1001.72 1001.22 1000.49 1000.00 999.53 999.38 999.21 998.74 998.43 998.09 998.69 999.02 999.00 998.61 998.11 998.65 999.15 999.54 999.75 999.57 999.25 999.23 999.36 999.47 999.69 1000.07 1000.42 1000.63 1000.92 1001.30 1001.73 1002.14 1002.60 1003.09 1003.54 1003.97 1004.29 1004.82 1005.54 1006.26 1006.75 1007.25 1007.59 1007.89 1008.17 1008.48 1008.84 1009.11 1009.37
1003.20 1002.66 1002.56 1001.67 1001.51 1001.35 1000.74 1000.47 1000.25 999.97 999.52 999.36 999.13 998.63 998.72 998.84 999.10 998.92 998.91 999.86 1000.19 1000.77 1000.98 1001.04 1000.84 1000.36 999.91 999.73 999.74 999.92 1000.04 1000.21 1000.50 1000.79 1000.98 1001.30 1001.68 1002.27 1002.91 1003.49 1004.01 1004.54 1004.90 1005.43 1006.23 1006.80 1007.19 1007.54 1007.89 1008.18 1008.43 1008.56 1008.78 1009.09
1002.25 1001.75 1001.92 1001.94 1001.84 1001.72 1001.41 1001.00 1000.66 1000.44 1000.17 999.67 999.30 999.17 999.25 999.39 999.23 999.89 1000.96 1001.62 1001.76 1002.11 1002.14 1002.11 1002.06 1001.79 1001.55 1001.30 1000.99 1000.68 1000.43 1000.32 1000.39 1000.48 1000.84 1001.24 1001.64 1002.20 1002.72 1003.31 1003.90 1004.39 1004.87 1005.47 1006.06 1006.48 1006.82 1007.14 1007.50 1007.91 1008.13 1008.29 1008.46 1008.66
1001.63 1001.35 1001.86 1002.10 1002.17 1002.04 1001.93 1001.56 1001.20 1000.73 1000.26 1000.29 1000.21 999.98 999.68 999.68 1000.47 1001.50 1002.04 1002.42 1002.44 1002.46 1002.47 1002.48 1002.44 1002.47 1002.35 1002.11 1002.01 1001.74 1001.52 1001.25 1001.18 1001.35 1001.67 1002.12 1002.57 1002.79 1003.01 1003.49 1003.74 1004.13 1004.63 1005.36 1005.98 1006.38 1006.65 1006.95 1007.29 1007.60 1007.84 1008.02 1008.10 1008.34
1001.63 1001.80 1002.22 1002.69 1002.96 1002.59 1002.36 1002.02 1001.60 1000.97 1001.36 1001.28 1001.10 1000.73 1000.55 1001.27 1001.80 1002.07 1002.28 1002.52 1002.84 1002.81 1002.61 1002.49 1002.52 1002.60 1002.50 1002.43 1002.31 1002.10 1002.03 1001.90 1001.75 1001.76 1001.93 1002.34 1003.00 1003.43 1003.55 1003.74 1004.06 1004.41 1004.92 1005.49 1006.05 1006.35 1006.61 1006.93 1007.28 1007.51 1007.65 1007.93 1008.12 1008.27
1001.78 1002.11 1002.38 1003.03 1003.11 1002.80 1002.39 1002.02 1002.02 1002.30 1002.31 1002.25 1002.31 1002.11 1001.88 1001.73 1001.84 1001.91 1002.07 1002.19 1002.33 1002.43 1002.55 1002.64 1002.68 1002.66 1002.46 1002.44 1002.22 1002.07 1002.05 1001.99 1001.92 1001.87 1001.76 1001.73 1002.08 1002.68 1003.47 1003.93 1004.26 1004.61 1005.03 1005.47 1005.89 1006.36 1006.75 1006.98 1007.26 1007.51 1007.68 1007.85 1007.97 1008.11
1002.49 1002.63 1002.61 1002.83 1002.93 1002.83 1002.76 1002.96 1003.08 1003.01 1002.92 1002.84 1002.88 1002.75 1002.38 1002.21 1001.96 1001.83 1001.77 1001.80 1001.93 1002.31 1002.48 1002.44 1002.49 1002.46 1002.35 1002.14 1002.07 1002.02 1001.82 1001.82 1001.89 1001.99 1001.97 1001.77 1001.90 1002.39 1002.81 1003.51 1004.10 1004.55 1004.92 1005.28 1005.60 1005.96 1006.35 1006.70 1006.87 1007.02 1007.20 1007.43 1007.50 1007.68
1002.90 1002.83 1003.04 1003.12 1003.21 1003.24 1003.49 1003.37 1003.17 1002.86 1002.52 1002.34 1002.13 1002.03 1001.99 1001.94 1001.67 1001.43 1001.24 1001.56 1001.78 1002.12 1002.30 1002.52 1002.52 1002.41 1002.44 1002.43 1002.03 1001.77 1001.73 1001.65 1001.63 1001.77 1001.94 1001.86 1001.98 1002.27 1002.72 1003.26 1003.91 1004.47 1004.79 1005.13 1005.47 1005.78 1006.04 1006.15 1006.36 1006.65 1006.87 1007.21 1007.55 1007.81
1003.40 1003.63 1003.51 1003.66 1003.73 1003.51 1003.56 1003.78 1003.40 1002.86 1002.53 1002.31 1002.03 1001.91 1001.86 1002.01 1001.75 1001.66 1002.51 1002.66 1002.64 1002.67 1002.79 1002.82 1002.80 1002.81 1002.82 1002.87 1002.67 1002.00 1001.65 1001.72 1001.87 1002.03 1002.06 1001.93 1002.04 1002.38 1002.79 1003.23 1003.68 1004.09 1004.47 1004.74 1005.00 1005.36 1005.58 1005.95 1006.17 1006.47 1006.82 1007.18 1007.60 1007.98
Wind_Speed
18 20 21 23 24 25 24 25 27 7 13 24 22 22 26 25 24 15 8 7 4 3 2 4 3 6 2 5 6 3 3 6 8 12 14 7 6 6 5 11 13 12 9 8 6 5 12 7 10 14 4 6 5 4
17 18 19 21 23 25 24 24 26 28 14 15 17 18 19 21 22 19 7 7 5 2 2 3 3 5 7 4 5 5 1 4 4 3 2 5 4 7 12 5 13 9 10 9 12 10 4 1 7 6 7 3 4 2
16 17 19 20 22 23 24 21 23 25 3 13 13 16 18 20 24 19 4 6 5 2 2 5 4 4 7 9 7 5 4 6 3 2 2 1 5 4 8 8 13 11 14 2 7 13 11 15 4 7 8 6 8 7
15 16 18 19 21 22 22 23 20 28 6 17 13 19 18 18 21 21 5 6 6 2 3 4 3 6 10 11 13 17 5 9 10 1 4 1 4 3 5 5 5 4 11 8 3 4 13 6 7 8 5 8 8 9
15 15 16 19 20 21 21 21 20 23 31 10 15 13 19 18 21 7 3 2 2 4 1 2 4 4 14 14 12 13 12 12 5 3 3 2 1 5 3 6 2 6 6 7 6 9 5 7 8 9 8 9 8 8
15 15 16 18 20 21 22 20 16 17 22 25 25 8 16 16 18 6 1 2 2 2 3 2 3 4 7 12 13 15 8 6 4 4 3 2 4 3 5 3 5 11 12 11 3 2 10 7 13 12 11 9 8 8
16 16 16 17 19 20 20 21 15 9 12 15 15 13 14 13 6 2 1 5 7 1 2 3 5 1 4 4 3 5 8 4 4 2 3 4 4 5 4 5 8 8 8 7 7 10 10 10 11 9 9 10 8 8
17 14 16 16 18 19 21 20 18 8 7 12 16 19 19 16 6 4 4 3 2 3 0 3 3 1 4 3 4 4 2 1 3 3 3 6 7 3 3 5 13 12 12 12 10 10 11 10 12 11 9 8 11 8
15 14 15 16 18 19 21 22 19 9 5 12 15 15 4 3 3 1 5 3 3 1 2 3 3 4 2 1 3 1 2 4 1 1 1 3 3 3 5 13 16 14 10 13 11 9 9 10 8 11 9 7 6 5
13 14 14 17 19 20 21 23 26 20 5 14 8 4 4 4 12 10 3 3 4 1 1 3 3 3 0 1 2 3 2 3 2 3 5 2 3 5 9 13 14 14 12 12 9 8 10 10 8 8 9 7 6 6
18 17 18 19 19 20 22 23 27 26 4 5 1 1 4 18 7 6 2 2 4 3 2 3 3 5 5 4 3 3 3 1 3 4 4 5 7 7 13 13 11 9 8 6 6 5 3 4 5 6 5 4 5 4
17 17 17 18 21 21 21 21 21 10 4 4 3 4 3 2 2 2 2 1 2 4 2 3 4 3 2 3 3 2 2 1 3 7 4 5 7 15 13 13 12 9 8 8 7 7 5 4 3 2 4 5 3 8
14 15 17 17 22 23 22 21 20 16 10 5 3 3 3 4 3 2 2 1 3 2 4 6 5 4 3 1 3 1 2 3 6 2 3 3 12 12 13 11 10 8 8 8 7 6 5 4 3 4 1 6 6 9
16 14 15 15 23 22 22 21 20 11 5 3 2 3 4 3 5 4 5 4 3 1 6 5 3 3 2 3 0 3 3 3 3 4 4 7 12 12 11 10 10 10 8 8 6 5 5 5 3 3 3 3 2 5
17 15 14 14 22 23 22 20 20 6 4 3 5 4 4 3 1 2 3 2 1 5 4 4 2 2 3 2 1 4 2 4 4 3 3 9 14 12 10 9 8 8 6 6 6 5 5 5 4 3 2 3 5 5
22 18 8 19 24 26 23 15 4 2 2 3 4 1 2 1 3 2 1 2 3 2 1 2 2 2 2 4 4 5 5 4 2 4 6 12 13 12 9 8 8 6 5 5 5 5 4 5 5 4 3 3 4 6
20 5 15 21 25 26 12 5 2 2 2 2 2 2 3 4 3 2 2 1 2 1 1 2 3 4 2 3 4 4 1 5 5 5 6 10 11 11 9 9 8 8 8 7 6 5 4 5 6 6 6 4 5 6
5 11 19 22 20 13 2 4 3 2 3 3 2 1 1 2 0 1 2 4 3 3 3 2 3 3 3 3 2 4 4 3 4 6 7 9 10 9 8 10 9 8 7 6 7 7 6 7 6 5 7 6 6 6
13 12 16 19 13 5 4 3 4 2 2 2 3 2 3 1 3 1 2 3 3 1 3 3 3 3 3 2 5 4 5 4 6 6 6 9 11 11 9 9 7 7 7 7 8 6 6 7 5 6 5 6 5 5
16 5 16 16 10 4 2 2 2 3 1 1 2 3 2 1 2 2 2 4 2 3 3 3 3 3 2 2 3 5 5 6 6 7 7 6 6 9 9 8 6 8 6 7 4 5 5 3 3 3 3 5 5 4
7 7 11 6 2 2 3 2 3 3 2 3 1 2 2 3 3 3 3 4 2 3 4 4 3 1 1 1 4 5 7 8 7 6 7 7 7 7 7 6 6 5 5 5 5 5 5 6 5 5 4 4 4 3
3 10 3 3 3 2 3 3 1 1 3 1 2 4 4 4 5 5 4 6 4 7 5 3 3 2 4 5 5 7 6 8 6 5 6 9 8 6 6 5 5 5 4 5 5 5 4 4 5 5 6 4 5 4
5 2 3 2 2 3 4 0 4 5 3 3 3 4 4 3 3 3 4 5 5 4 3 4 5 3 4 6 7 8 8 8 6 7 8 7 7 7 7 7 6 6 5 4 4 4 4 6 6 6 6 5 2 5
5 3 3 3 4 2 1 3 3 3 4 4 3 5 5 2 2 3 5 6 4 2 3 3 2 3 4 7 6 6 4 5 5 6 6 7 7 7 7 6 5 5 5 5 4 4 5 4 7 6 5 6 5 5
4 4 4 5 2 4 4 4 2 2 4 5 5 4 1 3 3 3 5 2 5 2 2 3 4 5 4 5 5 5 8 5 5 6 6 7 7 5 5 5 5 5 5 6 5 6 5 3 3 5 5 4 5 6
6 5 5 3 2 4 2 3 4 5 4 2 3 2 1 2 4 5 1 6 6 4 4 4 5 5 4 3 3 4 5 4 5 5 5 6 7 7 7 7 6 4 4 6 8 8 7 6 5 6 5 7 7 5
6 6 5 1 2 1 2 3 4 3 3 4 3 3 2 4 5 4 3 5 4 4 4 4 5 5 5 5 5 4 3 1 3 4 4 4 4 7 7 8 7 6 6 7 7 8 8 8 7 7 6 5 6 6
5 3 6 6 2 2 3 2 2 3 4 2 2 4 3 3 4 3 3 3 4 4 3 3 3 3 4 5 4 3 3 3 6 7 7 7 5 4 4 3 3 8 7 7 7 6 6 7 6 6 5 4 4 5
4 4 4 3 1 3 4 5 3 1 2 2 2 4 4 3 2 1 1 1 1 4 4 3 2 3 3 2 3 2 2 3 6 9 11 7 4 2 2 4 4 5 6 7 7 7 7 6 6 4 4 3 2 2
4 5 4 4 4 5 3 2 3 3 3 4 4 7 9 7 5 4 4 5 5 6 4 4 5 5 5 4 5 3 2 3 3 3 6 8 7 8 7 5 5 6 6 6 7 6 6 4 4 3 4 4 5 5
4 3 3 4 3 2 1 5 5 6 7 8 7 8 10 8 7 6 7 6 5 4 6 7 6 6 6 6 6 5 5 4 4 2 3 1 7 9 9 8 6 5 5 6 6 6 6 6 5 5 6 6 6 5
3 3 3 3 1 2 4 3 4 6 7 7 7 6 7 8 9 8 2 0 4 5 5 6 6 7 5 6 5 5 4 2 5 5 5 4 6 8 8 8 7 6 8 7 6 6 7 7 6 6 5 6 4 2
3 2 2 1 1 2 2 3 3 4 3 4 4 3 4 4 5 2 2 2 3 5 5 5 5 5 5 6 8 7 3 5 7 6 1 7 9 9 7 7 7 8 9 8 8 8 10 9 7 6 6 5 4 4
Wind_Direction
360 359 354 360 4 4 3 7 6 4 171 182 179 190 189 182 183 187 195 175 116 222 254 283 202 223 334 261 189 188 128 181 190 194 193 170 167 180 171 186 174 163 159 185 171 169 255 184 182 197 154 90 91 77
2 360 0 360 5 6 7 11 11 8 189 171 181 188 184 186 183 182 203 200 193 176 33 320 241 189 189 175 315 181 136 152 169 151 224 115 185 155 166 194 187 189 199 157 189 205 272 309 189 149 107 112 125 112
6 0 1 2 5 9 9 13 16 6 345 160 175 178 184 193 191 181 181 169 108 97 240 247 238 194 293 237 184 269 168 150 159 300 50 132 139 186 177 200 172 202 202 192 140 214 212 227 198 109 136 155 141 124
8 5 359 2 3 7 9 10 11 6 32 176 186 176 187 178 182 178 191 165 180 151 225 163 280 256 288 275 274 250 201 147 126 85 80 152 122 358 178 160 140 144 156 181 185 268 171 175 135 131 143 116 121 118
6 5 5 358 0 360 5 9 12 27 28 158 169 167 179 176 173 128 81 57 215 206 242 142 168 353 322 346 263 233 149 134 135 101 66 85 295 61 13 3 121 158 168 175 208 209 157 159 138 133 137 147 141 133
9 6 2 2 357 360 1 7 13 41 50 40 53 129 158 165 135 89 61 284 228 285 141 160 322 338 335 318 41 49 30 49 81 108 116 122 165 169 141 183 256 172 168 187 157 333 139 140 137 145 166 165 148 164
2 5 5 2 0 358 3 0 13 43 64 78 52 43 63 86 130 139 229 134 173 207 133 167 169 15 318 324 1 40 24 55 67 93 118 139 153 180 174 170 170 168 142 130 139 135 123 150 148 156 172 156 145 161
2 2 4 4 3 360 357 1 4 39 86 116 110 94 100 82 66 49 17 80 349 90 192 172 102 200 328 360 43 39 103 157 31 118 196 139 132 154 191 209 136 131 141 130 130 133 134 143 148 168 182 162 165 180
0 355 6 7 1 360 358 354 359 1 142 130 143 141 159 50 45 82 235 255 259 267 152 216 146 115 230 109 129 123 88 53 38 81 89 106 137 201 206 173 147 145 144 144 146 144 143 149 179 170 179 183 186 196
4 7 18 6 1 356 357 355 347 344 173 168 179 203 139 155 120 144 190 215 169 213 10 33 167 106 146 206 116 123 85 109 104 55 126 139 172 180 181 133 142 151 170 163 153 165 164 178 189 194 192 199 199 202
21 18 10 5 359 356 354 355 348 333 180 213 154 19 103 147 183 211 191 208 143 118 98 39 65 108 350 88 95 57 112 218 117 147 153 174 157 172 139 129 110 111 120 150 153 131 109 147 174 184 196 220 185 195
3 6 7 2 356 353 350 349 351 356 13 337 307 266 253 271 339 63 11 285 33 91 114 122 97 64 51 25 68 22 88 226 127 162 174 178 154 162 139 130 131 136 148 142 135 129 112 107 106 209 270 198 139 96
339 340 348 358 355 348 343 341 338 329 283 207 237 22 9 335 5 297 164 87 48 67 131 143 129 137 160 126 52 58 118 71 150 177 211 173 147 139 142 143 143 149 149 137 127 118 115 122 91 5 94 49 66 87
341 328 324 344 348 342 338 332 329 334 290 358 39 36 358 39 44 1 355 13 23 121 130 127 102 84 92 62 248 94 67 171 208 194 198 129 131 137 143 146 154 161 144 141 139 125 105 105 88 38 52 71 99 105
331 327 319 340 341 336 329 320 310 303 355 11 19 15 69 110 73 303 279 221 359 122 130 139 95 91 91 85 94 105 173 210 233 199 110 135 137 140 132 153 114 100 86 100 107 116 125 134 141 128 143 167 166 140
332 317 10 346 338 329 319 308 283 40 357 46 32 133 110 150 122 143 280 123 109 102 114 241 122 128 192 146 175 201 197 208 169 68 102 116 124 125 124 114 111 120 129 141 124 132 138 146 143 130 114 97 115 127
320 16 3 349 336 317 299 299 342 35 40 43 56 20 316 55 40 35 305 36 127 197 215 279 160 190 192 214 202 200 232 74 100 97 103 125 130 119 121 128 137 146 156 166 153 144 130 128 134 135 130 127 113 109
330 332 354 339 337 308 33 357 331 353 81 66 132 140 93 94 251 307 346 6 337 351 331 352 311 228 204 219 241 91 103 75 94 125 128 117 115 122 136 151 161 161 154 163 156 150 154 167 174 139 134 135 127 137
320 314 326 324 331 288 344 357 330 34 72 127 154 164 98 220 242 293 338 310 303 330 312 294 265 250 260 27 101 108 127 145 134 117 109 124 138 149 158 158 159 155 159 161 162 175 176 185 160 159 150 167 153 156
306 282 343 314 310 281 322 341 283 286 198 91 195 218 158 175 336 8 289 267 305 288 234 227 267 36 7 38 131 154 150 131 131 126 124 128 129 144 148 155 160 154 161 174 176 135 146 137 136 135 159 149 134 146
317 357 320 322 294 296 294 276 230 5 359 281 53 253 213 157 227 218 236 226 198 240 246 263 326 88 84 132 125 121 134 151 162 157 155 153 159 162 157 156 156 160 161 164 170 163 174 174 174 142 135 101 102 134
337 325 302 313 272 223 269 235 1 77 260 323 253 233 235 207 217 224 206 204 240 236 249 281 287 206 179 172 161 136 162 165 141 127 132 139 159 161 166 166 164 167 163 171 172 162 181 159 138 143 123 138 171 137
290 227 259 282 270 245 268 300 240 181 226 244 212 235 226 221 216 176 226 212 226 234 240 240 235 224 203 168 143 138 165 163 148 156 151 157 163 169 166 167 174 169 170 180 164 158 176 147 132 139 143 150 158 151
148 253 255 243 218 267 276 250 228 238 201 211 243 240 251 195 116 254 255 245 225 182 183 219 253 231 179 177 160 157 160 179 166 156 174 161 168 168 164 164 166 172 162 161 164 167 120 134 143 149 153 153 171 177
243 193 235 214 207 212 212 241 266 269 224 223 260 275 211 145 206 224 249 243 137 82 69 340 285 265 208 208 198 160 154 184 183 170 172 163 164 158 160 152 150 148 125 117 128 128 130 126 134 140 149 163 185 185
237 170 216 216 203 215 236 214 203 232 261 262 260 286 323 237 233 234 63 34 69 50 37 18 358 337 311 295 190 159 167 195 198 184 178 174 172 160 154 153 155 154 167 145 157 166 161 160 171 181 193 185 184 184
228 188 190 176 293 236 265 264 278 267 266 248 241 251 225 230 232 80 92 28 49 25 16 12 351 339 342 347 358 16 6 257 215 189 132 114 134 155 159 167 183 193 150 148 157 171 182 181 172 187 205 205 200 186
232 186 172 177 193 220 224 276 263 251 244 14 252 222 242 319 53 55 55 41 25 4 348 340 315 303 313 321 332 332 14 19 75 87 87 72 51 44 101 133 148 149 135 130 159 168 168 165 164 168 171 196 212 172
188 160 115 122 179 205 221 208 241 296 48 327 285 290 358 50 79 38 335 181 323 321 319 328 1 1 306 271 274 267 194 192 175 177 172 170 159 187 94 118 129 125 125 137 156 164 161 153 162 171 166 185 165 189
135 157 146 139 176 206 220 257 332 25 329 325 323 301 291 286 296 322 308 289 281 282 296 305 302 288 284 296 303 243 221 223 234 239 211 199 184 152 155 167 164 145 142 161 162 152 138 142 135 154 195 217 217 214
119 173 147 164 194 211 277 1 332 302 278 268 266 266 275 290 290 278 267 263 250 252 274 274 267 262 266 259 251 271 269 200 199 208 291 165 148 159 156 151 148 142 155 176 177 174 169 178 192 196 195 214 220 207
164 164 132 137 217 65 350 291 289 268 271 271 270 268 267 266 276 284 15 193 207 240 265 279 282 277 299 346 304 247 254 242 190 181 202 167 155 151 145 140 146 161 179 176 180 185 203 195 186 197 192 180 161 189
98 119 80 78 216 248 93 330 281 288 301 297 282 281 290 291 279 48 67 16 331 335 338 344 348 341 332 327 318 318 86 88 89 72 34 185 160 153 153 157 164 172 183 186 175 185 190 190 208 184 173 157 175 207